Hourly Data Report for March 29, 2012

HALIFAX STANFIELD INT'L A
NOVA SCOTIA

44°52'48.060" N
63°30'00.050" W
145.40 m
8202250
71395
YHZ

Download Data

Hourly Data (March 2012)
Hourly Data Report for March 29, 2012
TIME
LST
Temp Definition
°C
Dew Point Definition
°C
Rel Hum Definition
%
Precip. Amount Definition
mm

Wind Dir Definition
10's deg

Wind Spd Definition
km/h
Visibility Definition
km
Stn Press Definition
kPa
Hmdx Definition


Wind Chill Definition


Weather Definition


00:00 -3.1 -6.3 79   2 9 24.1 98.94   -7 Cloudy
01:00 -3.5 -6.3 81   4 9 24.1 98.87   -7 Cloudy
02:00 -3.7 -6.5 81   2 7 24.1 98.82   -7 Cloudy
03:00 -3.8 -6.5 81   5 7 24.1 98.75   -7 Cloudy
04:00 -4.0 -6.4 83   3 7 24.1 98.71   -7 Snow Showers
05:00 -4.0 -5.9 87   3 9 16.1 98.74   -8 Snow Showers
06:00 -4.1 -5.9 87   2 9 16.1 98.76   -8 Snow Showers
07:00 -4.0 -5.9 87   3 17 24.1 98.78   -10 Snow Showers
08:00 -3.6 -5.7 85   1 9 9.7 98.78   -7 Snow Showers
09:00 -2.7 -5.1 84   6 7 19.3 98.73   -6 Snow Showers
10:00 -0.4 -4.2 75   36 15 24.1 98.72   -5 Mostly Cloudy
11:00 -0.7 -5.1 72   36 7 24.1 98.72   -3 Mostly Cloudy
12:00 0.0 -5.5 66   34 9 24.1 98.71   -3 Mostly Cloudy
13:00 2.2 -5.9 55   31 9 24.1 98.66     Mostly Cloudy
14:00 2.7 -6.0 53   3 15 24.1 98.62     Mostly Cloudy
15:00 3.5 -6.7 47   2 15 24.1 98.58     Mostly Cloudy
16:00 3.4 -7.9 43   33 26 24.1 98.54     Mostly Cloudy
17:00 3.3 -9.5 38   36 17 24.1 98.56     Mainly Clear
18:00 1.7 -8.2 48   36 22 24.1 98.61     Mainly Clear
19:00 0.5 -8.3 52   2 13 24.1 98.68     Mostly Cloudy
20:00 -0.4 -7.9 57   2 7 24.1 98.73   -3 Mostly Cloudy
21:00 -1.1 -7.4 62   4 4 24.1 98.78   -2 Mostly Cloudy
22:00 -1.0 -6.8 65     0 24.1 98.79     Mostly Cloudy
23:00 -1.9 -7.6 65   25 6 24.1 98.80   -4 Mainly Clear

Notes on Data Quality.

Legend

  • E = Estimated
  • M = Missing
  • NA = Not Available*
  • [empty] = Indicates an unobserved value
Date modified: